"2009-05-22 00:00:00",907514,4.836,131.6,6.34,1.145,11.85,104.4569,10.68,11.71,86.3,0,110.2,13.35,11.47,93.6
"2009-05-22 00:00:30",907515,4.605,121.9,2.562,0.179,10.44,104.4479,10.66,11.69,86.3,0,110.2,13.38,11.45,83.9
"2009-05-22 00:01:00",907516,5.442,128.8,5.826,0.695,11.78,104.4355,10.63,11.85,86.5,0,110.2,13.35,11.42,90.8
"2009-05-22 00:01:30",907517,6.925,140,6.639,1.381,13.55,104.4347,10.63,11.68,86.3,0,110.3,13.35,11.42,102.0
"2009-05-22 00:02:00",907518,6.809,135,7.36,1.394,14.27,104.4341,10.62,11.95,86.6,0,110.2,13.35,11.41,97.0
"2009-05-22 00:02:30",907519,7.825,138.2,4.735,0.835,15.54,104.4344,10.63,11.94,86.6,0,110.2,13.35,11.41,100.2
"2009-05-22 00:03:00",907520,7.216,141,7.079,1.436,13.42,104.4335,10.62,11.86,86.6,0,110.2,13.35,11.41,103.0
"2009-05-22 00:03:30",907521,5.581,135.8,1.686,0.159,10.64,104.4273,10.61,11.69,86.4,0,110.2,13.39,11.40,97.8
"2009-05-22 00:04:00",907522,5.797,134.3,1.517,0.193,10.68,104.4251,10.6,11.61,86.4,0,110.2,13.39,11.39,96.3
"2009-05-22 00:04:30",907523,5.971,134.6,1.78,0.109,11.04,104.4231,10.6,11.63,86.4,0,110.2,13.39,11.39,96.6
"2009-05-22 00:05:00",907524,7.502,135.6,5.55,1.305,13.94,104.4211,10.59,11.79,86.6,0,110.2,13.35,11.38,97.6
"2009-05-22 00:05:30",907525,7.765,140,9.38,1.218,14.9,104.416,10.58,11.89,86.8,0,110.2,13.36,11.37,102.0
"2009-05-22 00:06:00",907526,7.918,144.7,5.736,1.173,15.17,104.4084,10.56,11.87,86.8,0,110.1,13.36,11.35,106.7
"2009-05-22 00:06:30",907527,8.09,143.3,6.471,1.166,13.78,104.4056,10.55,11.75,86.7,0,110.2,13.35,11.34,105.3
"2009-05-22 00:07:00",907528,6.441,132.1,1.057,0.227,10.58,104.4033,10.55,11.58,86.6,0,110.2,13.39,11.33,94.1
"2009-05-22 00:07:30",907529,6.149,129.4,1.819,0.394,10.78,104.4016,10.54,11.57,86.6,0,110.2,13.39,11.33,91.4
"2009-05-22 00:08:00",907530,6.402,130,6.33,1.05,12.14,104.4011,10.54,11.59,86.7,0,110.2,13.35,11.33,92.0
"2009-05-22 00:08:30",907531,7.733,135.4,6.288,1.256,14.88,104.4008,10.54,11.76,87,0,110.3,13.35,11.33,97.4
"2009-05-22 00:09:00",907532,7.409,131.5,6.889,1.414,15.08,104.4008,10.54,11.89,87.2,0,110.2,13.36,11.33,93.5
"2009-05-22 00:09:30",907533,7.534,141.8,6.77,1.132,15.12,104.4008,10.54,11.84,87.2,0,110.2,13.36,11.33,103.8
"2009-05-22 00:10:00",907534,6.951,141.4,7.01,1.165,13.34,104.4008,10.54,11.74,87.2,0,110.2,13.35,11.33,103.4
"2009-05-22 00:10:30",907535,5.035,130.6,3.324,0.215,10.58,104.4008,10.54,11.57,87,0,110.2,13.39,11.33,92.6
"2009-05-22 00:11:00",907536,5.029,117.9,3.091,0.247,10.53,104.4008,10.54,11.57,87,0,110.2,13.39,11.33,79.9
"2009-05-22 00:11:30",907537,5.157,122.7,2.237,0.2,10.89,104.4008,10.54,11.56,87.1,0,110.2,13.39,11.33,84.7
"2009-05-22 00:12:00",907538,6.897,122.3,6.994,1.496,13.39,104.4008,10.54,11.77,87.4,0,110.2,13.36,11.33,84.3
"2009-05-22 00:12:30",907539,7.535,138.4,7.223,1.13,14.91,104.4008,10.54,11.82,87.5,0,110.2,13.36,11.33,100.4
"2009-05-22 00:13:00",907540,7.739,138.8,6.267,0.825,15.53,104.4008,10.54,11.8,87.6,0,110.2,13.36,11.33,100.8
"2009-05-22 00:13:30",907541,6.63,132.8,7.422,1.509,13.08,104.4008,10.54,11.79,87.6,0,110.2,13.36,11.33,94.8
"2009-05-22 00:14:00",907542,5.598,129.9,2.325,0.347,10.36,104.4008,10.54,11.55,87.4,0,110.2,13.39,11.33,91.9
"2009-05-22 00:14:30",907543,5.842,129.7,2.752,0.261,10.59,104.4008,10.54,11.55,87.5,0,110.2,13.39,11.33,91.7
"2009-05-22 00:15:00",907544,5.556,122.4,7.403,0.249,10.94,104.3969,10.53,11.54,87.5,0,110.2,13.39,11.32,84.4
"2009-05-22 00:15:30",907545,6.455,130.8,9.42,1.222,13.55,104.3932,10.52,11.81,87.8,0,110.2,13.35,11.31,92.8
"2009-05-22 00:16:00",907546,6.827,138.4,8.16,1.205,13.62,104.3906,10.51,11.72,87.7,0,110.2,13.35,11.30,100.4
"2009-05-22 00:16:30",907547,7.177,133.9,7.834,1.204,14.39,104.3918,10.52,11.8,87.9,0,110.2,13.35,11.30,95.9
"2009-05-22 00:17:00",907548,7.354,130.8,6.345,1.241,14.26,104.3884,10.51,11.7,87.9,0,110.2,13.35,11.30,92.8
"2009-05-22 00:17:30",907549,5.71,124.8,3.452,0.25,10.49,104.3785,10.48,11.52,87.8,0,110.2,13.39,11.27,86.8
"2009-05-22 00:18:00",907550,5.687,132.8,2.459,0.17,10.58,104.3737,10.47,11.51,87.8,0,110.2,13.39,11.26,94.8
"2009-05-22 00:18:30",907551,6.074,135.6,4.264,0.929,11.79,104.3678,10.45,11.65,88,0,110.2,13.35,11.24,97.6
"2009-05-22 00:19:00",907552,6.982,135.3,6.548,1.21,13.36,104.367,10.45,11.6,87.9,0,110.2,13.35,11.24,97.3
"2009-05-22 00:19:30",907553,8.3,141,5.991,1.182,15.07,104.367,10.45,11.74,88.1,0,110.2,13.36,11.24,103.0
"2009-05-22 00:20:00",907554,8.65,134,7.09,0.996,15.26,104.367,10.45,11.76,88.2,0,110.2,13.36,11.24,96.0
"2009-05-22 00:20:30",907555,7.83,138.1,7.099,1.258,14.56,104.367,10.45,11.71,88.1,0,110.2,13.36,11.24,100.1
"2009-05-22 00:21:00",907556,6.121,131.3,6.446,0.794,10.82,104.367,10.45,11.48,88,0,110.2,13.36,11.24,93.3
"2009-05-22 00:21:30",907557,5.694,132.8,3.419,0.405,10.77,104.367,10.45,11.47,87.9,0,110.2,13.39,11.24,94.8
"2009-05-22 00:22:00",907558,6.915,138.5,7.306,1.171,13.28,104.3667,10.45,11.64,88.1,0,110.2,13.36,11.24,100.5
"2009-05-22 00:22:30",907559,6.185,129.4,5.767,0.859,11.8,104.3667,10.45,11.57,88.1,0,110.2,13.36,11.24,91.4
"2009-05-22 00:23:00",907560,7.418,141.4,8.36,1.31,14.69,104.3667,10.45,11.7,88.2,0,110.2,13.36,11.24,103.4
"2009-05-22 00:23:30",907561,8,138.9,4.556,0.994,15.47,104.3661,10.45,11.76,88.3,0,110.2,13.36,11.24,100.9
"2009-05-22 00:24:00",907562,7.269,130.4,7.338,1.277,13.35,104.3661,10.45,11.61,88.2,0,110.2,13.36,11.24,92.4
"2009-05-22 00:24:30",907563,6.126,126.9,7.107,0.393,10.68,104.3616,10.44,11.51,88.2,0,110.2,13.4,11.23,88.9
"2009-05-22 00:25:00",907564,5.776,133.4,2.93,0.168,10.84,104.3605,10.44,11.47,88.1,0,110.2,13.4,11.22,95.4
"2009-05-22 00:25:30",907565,7.023,141.3,6.511,1.286,13.58,104.3582,10.43,11.63,88.3,0,110.2,13.36,11.22,103.3
"2009-05-22 00:26:00",907566,6.054,136.4,5.391,0.981,11.74,104.3562,10.43,11.56,88.1,0,110.2,13.37,11.21,98.4
"2009-05-22 00:26:30",907567,7.238,135.6,7.436,1.129,14.72,104.3551,10.42,11.69,88.3,0,110.2,13.37,11.21,97.6
"2009-05-22 00:27:00",907568,7.258,137.2,6.407,1.254,13.91,104.3543,10.42,11.67,88.3,0,110.2,13.36,11.21,99.2
"2009-05-22 00:27:30",907569,6.635,131.8,6.288,1.239,12.07,104.3503,10.41,11.48,88.1,0,110.2,13.36,11.20,93.8
"2009-05-22 00:28:00",907570,6.822,138.3,8.96,1.185,12.61,104.3483,10.4,11.54,88.2,0,110.2,13.36,11.19,100.3
"2009-05-22 00:28:30",907571,6.644,131.9,6.884,1.168,12.38,104.3418,10.39,11.46,88.1,0,110.2,13.36,11.18,93.9
"2009-05-22 00:29:00",907572,7.349,132.7,7.932,1.599,13.31,104.3373,10.38,11.59,88.2,0,110.2,13.37,11.17,94.7
"2009-05-22 00:29:30",907573,7.173,127.2,7.925,1.075,12.89,104.3337,10.37,11.5,88.1,0,110.2,13.37,11.16,89.2
"2009-05-22 00:30:00",907574,7.566,132.1,7.824,1.326,13.47,104.3331,10.37,11.66,88.3,0,110.2,13.37,11.15,94.1
"2009-05-22 00:30:30",907575,7.73,134.2,7.234,1.321,14.14,104.3331,10.37,11.67,88.3,0,110.2,13.36,11.15,96.2
"2009-05-22 00:31:00",907576,7.624,136.1,7.031,1.398,13.85,104.3331,10.37,11.57,88.1,0,110.2,13.36,11.15,98.1
"2009-05-22 00:31:30",907577,6.26,129.2,1.382,0.16,10.77,104.3331,10.37,11.41,87.9,0,110.2,13.39,11.15,91.2
"2009-05-22 00:32:00",907578,7.143,137.6,10.22,1.112,13.33,104.3331,10.37,11.56,88,0,110.2,13.36,11.15,99.6
"2009-05-22 00:32:30",907579,7.346,135.1,5.994,1.497,13.58,104.3331,10.37,11.56,88.1,0,110.2,13.36,11.15,97.1
"2009-05-22 00:33:00",907580,7.131,129.2,7.126,1.164,12.86,104.3331,10.37,11.53,88,0,110.2,13.36,11.15,91.2
"2009-05-22 00:33:30",907581,7.026,134.1,6.151,1.355,13.31,104.3331,10.37,11.57,88,0,110.2,13.36,11.15,96.1
"2009-05-22 00:34:00",907582,7.185,137.8,8.06,1.367,13.58,104.3331,10.37,11.62,88.1,0,110.2,13.36,11.15,99.8
"2009-05-22 00:34:30",907583,6.886,134.6,7.283,1.164,12.83,104.3331,10.37,11.59,88,0,110.2,13.36,11.15,96.6
"2009-05-22 00:35:00",907584,5.865,122.8,4.725,0.42,11.43,104.3331,10.37,11.52,88,0,110.2,13.39,11.15,84.8
"2009-05-22 00:35:30",907585,7.162,138.5,6.048,1.178,13.95,104.3331,10.37,11.54,88.1,0,110.2,13.36,11.15,100.5
"2009-05-22 00:36:00",907586,7.668,138.2,6.268,1.149,14.09,104.3331,10.37,11.56,88,0,110.2,13.36,11.15,100.2
"2009-05-22 00:36:30",907587,6.029,125.7,2.285,0.187,10.84,104.3325,10.36,11.42,88,0,110.2,13.4,11.15,87.7
"2009-05-22 00:37:00",907588,7.439,132,6.398,1.444,13.86,104.33,10.36,11.51,88,0,110.2,13.37,11.15,94.0
"2009-05-22 00:37:30",907589,7.532,132.6,5.98,1.329,13.94,104.3272,10.35,11.58,88.1,0,110.2,13.37,11.14,94.6
"2009-05-22 00:38:00",907590,7.193,129.3,8.08,1.36,13.28,104.3246,10.34,11.61,88.1,0,110.2,13.37,11.13,91.3
"2009-05-22 00:38:30",907591,7.232,130.1,9.73,1.157,13.06,104.3204,10.33,11.52,88,0,110.2,13.37,11.12,92.1
"2009-05-22 00:39:00",907592,7.419,131.6,6.217,1.432,13.07,104.317,10.32,11.55,88.1,0,110.2,13.37,11.11,93.6
"2009-05-22 00:39:30",907593,7.796,129.2,7.975,1.333,12.83,104.3134,10.32,11.43,88,0,110.2,13.37,11.10,91.2
"2009-05-22 00:40:00",907594,6.2,125.4,1.614,0.121,10.64,104.3086,10.3,11.35,87.9,0,110.2,13.4,11.09,87.4
"2009-05-22 00:40:30",907595,7.07,131,5.324,1.024,11.99,104.3007,10.28,11.48,88.1,0,110.2,13.37,11.07,93.0
"2009-05-22 00:41:00",907596,8.35,135.5,6.216,1.136,14.91,104.2995,10.28,11.59,88.1,0,110.2,13.37,11.07,97.5
"2009-05-22 00:41:30",907597,7.311,134.3,7.119,1.263,13.37,104.2992,10.28,11.48,88,0,110.2,13.37,11.07,96.3
"2009-05-22 00:42:00",907598,6.803,130.8,5.168,1.31,12.41,104.2995,10.28,11.45,88,0,110.2,13.37,11.07,92.8
"2009-05-22 00:42:30",907599,8.29,134.2,6.505,1.259,13.92,104.3004,10.28,11.55,88.1,0,110.2,13.37,11.07,96.2
"2009-05-22 00:43:00",907600,6.707,129.3,3.916,0.998,11.13,104.301,10.28,11.31,87.9,0,110.2,13.37,11.07,91.3
"2009-05-22 00:43:30",907601,6.106,126.3,0.776,0.059,10.49,104.3016,10.29,11.31,87.9,0,110.2,13.4,11.07,88.3
"2009-05-22 00:44:00",907602,7.141,133,6.557,1.338,13.09,104.3016,10.29,11.52,88,0,110.2,13.37,11.07,95.0
"2009-05-22 00:44:30",907603,7.673,137.4,6.359,1.213,14.24,104.3016,10.29,11.5,88,0,110.2,13.37,11.07,99.4
"2009-05-22 00:45:00",907604,7.318,133.8,7.445,1.305,13.37,104.3022,10.29,11.52,88,0,110.2,13.37,11.07,95.8
"2009-05-22 00:45:30",907605,7.963,136,6.46,1.214,14.46,104.3014,10.28,11.55,88.1,0,110.2,13.37,11.07,98.0
"2009-05-22 00:46:00",907606,6.985,129.2,5.261,1.13,11.92,104.2985,10.28,11.46,88,0,110.2,13.37,11.07,91.2
"2009-05-22 00:46:30",907607,5.515,123.2,4.766,0.366,10.38,104.3017,10.29,11.29,87.9,0,110.2,13.4,11.07,85.2
"2009-05-22 00:47:00",907608,5.794,124.6,5.402,0.279,10.47,104.298,10.28,11.29,87.9,0,110.2,13.4,11.06,86.6
"2009-05-22 00:47:30",907609,7.792,135.2,7.367,1.401,13.95,104.2967,10.27,11.48,88.2,0,110.2,13.36,11.06,97.2
"2009-05-22 00:48:00",907610,8.29,136.1,6.901,1.23,14.85,104.2976,10.28,11.55,88.3,0,110.2,13.37,11.06,98.1
"2009-05-22 00:48:30",907611,8.45,140.4,5.46,1.167,15.09,104.2939,10.27,11.5,88.2,0,110.2,13.36,11.05,102.4
"2009-05-22 00:49:00",907612,8.29,136.9,6.503,1.213,14.65,104.2945,10.27,11.54,88.3,0,110.2,13.36,11.06,98.9
"2009-05-22 00:49:30",907613,6.807,128.8,6.444,1.082,11.56,104.2935,10.26,11.34,88.1,0,110.2,13.36,11.05,90.8
"2009-05-22 00:50:00",907614,6.315,128.5,1.91,0.119,10.35,104.2909,10.26,11.28,88.1,0,110.2,13.39,11.05,90.5
"2009-05-22 00:50:30",907615,6.589,131.4,4.179,1.049,11.6,104.2924,10.26,11.28,88.1,0,110.2,13.36,11.05,93.4
"2009-05-22 00:51:00",907616,7.712,132.4,6.423,1.369,13.82,104.2913,10.26,11.47,88.3,0,110.2,13.36,11.05,94.4
"2009-05-22 00:51:30",907617,8.52,142,6.359,1.16,15.4,104.2886,10.25,11.53,88.4,0,110.2,13.36,11.04,104.0
"2009-05-22 00:52:00",907618,8.5,145.1,5.189,1.158,15.22,104.2806,10.23,11.62,88.4,0,110.2,13.37,11.02,107.1
"2009-05-22 00:52:30",907619,8.66,137.3,6.379,1.051,14.38,104.2803,10.23,11.47,88.3,0,110.2,13.37,11.02,99.3
"2009-05-22 00:53:00",907620,6.293,125.9,3.684,0.203,10.33,104.2803,10.23,11.27,88.1,0,110.2,13.4,11.02,87.9
"2009-05-22 00:53:30",907621,6.236,127,2.624,0.191,10.41,104.2821,10.24,11.25,88.1,0,110.2,13.41,11.02,89.0
"2009-05-22 00:54:00",907622,6.029,123.4,3.503,0.473,10.86,104.2813,10.23,11.36,88.2,0,110.2,13.41,11.02,85.4
"2009-05-22 00:54:30",907623,7.466,135.3,6.882,1.302,14.81,104.2828,10.24,11.53,88.4,0,110.2,13.37,11.03,97.3
"2009-05-22 00:55:00",907624,8.55,140,5.551,1.002,15.2,104.2845,10.24,11.52,88.4,0,110.2,13.37,11.03,102.0
"2009-05-22 00:55:30",907625,8.16,139.1,6.243,1.08,15.1,104.2839,10.24,11.58,88.5,0,110.2,13.37,11.03,101.1
"2009-05-22 00:56:00",907626,7.315,134.4,6.323,1.197,12.88,104.2842,10.24,11.42,88.3,0,110.2,13.37,11.03,96.4
"2009-05-22 00:56:30",907627,6.56,128.1,1.948,0.261,10.31,104.2863,10.25,11.26,88.2,0,110.2,13.41,11.03,90.1
"2009-05-22 00:57:00",907628,6.655,130,1.95,0.351,10.58,104.2857,10.24,11.26,88.2,0,110.2,13.41,11.03,92.0
"2009-05-22 00:57:30",907629,7.158,133.9,4.217,0.865,12.39,104.2881,10.25,11.39,88.3,0,110.2,13.37,11.04,95.9
"2009-05-22 00:58:00",907630,8.88,139.3,5.761,1.065,15.37,104.2889,10.25,11.48,88.4,0,110.2,13.37,11.04,101.3
"2009-05-22 00:58:30",907631,9.42,142,4.648,0.371,16.17,104.2889,10.25,11.57,88.5,0,110.2,13.37,11.04,104.0
"2009-05-22 00:59:00",907632,9.33,144.1,5.281,0.845,15.01,104.2889,10.25,11.5,88.4,0,110.2,13.37,11.04,106.1
"2009-05-22 00:59:30",907633,7.313,135.5,4.191,0.667,11.09,104.291,10.26,11.37,88.3,0,110.2,13.37,11.05,97.5
"2009-05-22 01:00:00",907634,6.505,130,1.845,0.258,10.38,104.2913,10.26,11.23,88.1,0,110.2,13.41,11.05,92.0
"2009-05-22 01:00:30",907635,6.845,134.2,4.391,0.925,11.17,104.2916,10.26,11.22,88.2,0,110.2,13.37,11.05,96.2
"2009-05-22 01:01:00",907636,7.893,135.6,6.376,1.379,13.18,104.2928,10.26,11.39,88.3,0,110.2,13.37,11.05,97.6
"2009-05-22 01:01:30",907637,8.88,143,7.112,1.107,15.46,104.2931,10.26,11.55,88.5,0,110.2,13.37,11.05,105.0
"2009-05-22 01:02:00",907638,8.7,140.5,4.721,0.835,15.65,104.2928,10.26,11.55,88.5,0,110.2,13.37,11.05,102.5
"2009-05-22 01:02:30",907639,8.46,140.8,6.55,1.197,14.41,104.2951,10.27,11.45,88.4,0,110.2,13.37,11.06,102.8
"2009-05-22 01:03:00",907640,6.85,135.9,1.736,0.269,10.45,104.2966,10.27,11.23,88.2,0,110.2,13.41,11.06,97.9
"2009-05-22 01:03:30",907641,6.454,132,2.114,0.298,10.46,104.2981,10.28,11.22,88.2,0,110.2,13.37,11.06,94.0
"2009-05-22 01:04:00",907642,7.319,135,6.725,1.192,12.32,104.2958,10.27,11.37,88.4,0,110.2,13.37,11.06,97.0
"2009-05-22 01:04:30",907643,8.84,141.6,7.048,1.157,14.53,104.2958,10.27,11.39,88.4,0,110.2,13.37,11.06,103.6
"2009-05-22 01:05:00",907644,9.09,145.6,5.327,0.97,15.63,104.2929,10.26,11.53,88.6,0,110.2,13.37,11.05,107.6
"2009-05-22 01:05:30",907645,8.69,145.9,5.748,1.129,15.2,104.2926,10.26,11.52,88.5,0,110.2,13.37,11.05,107.9
"2009-05-22 01:06:00",907646,8.12,140.7,5.689,1.304,13.42,104.2949,10.27,11.46,88.5,0,110.2,13.36,11.06,102.7
"2009-05-22 01:06:30",907647,7.064,136.6,3.107,0.286,10.59,104.2944,10.27,11.22,88.3,0,110.2,13.4,11.05,98.6
"2009-05-22 01:07:00",907648,7.623,137.6,4.445,0.992,11.26,104.2967,10.27,11.23,88.3,0,110.2,13.37,11.06,99.6
"2009-05-22 01:07:30",907649,8.07,142.7,7.901,1.298,13.96,104.2944,10.27,11.47,88.6,0,110.2,13.37,11.05,104.7
"2009-05-22 01:08:00",907650,8.96,146.4,7.352,1.269,14.6,104.2958,10.27,11.51,88.6,0,110.2,13.37,11.06,108.4
"2009-05-22 01:08:30",907651,8.71,149.5,6.572,1.263,14.16,104.2964,10.27,11.42,88.5,0,110.2,13.37,11.06,111.5
"2009-05-22 01:09:00",907652,8.64,150,7.3,1.339,14.01,104.2973,10.27,11.48,88.6,0,110.2,13.37,11.06,112.0
"2009-05-22 01:09:30",907653,8.34,145.7,7.149,1.236,12.56,104.3007,10.28,11.25,88.3,0,110.2,13.37,11.07,107.7
"2009-05-22 01:10:00",907654,7.545,141.5,1.414,0.197,10.79,104.2998,10.28,11.26,88.4,0,110.2,13.41,11.07,103.5
"2009-05-22 01:10:30",907655,8.63,150,6.892,1.213,13.96,104.3001,10.28,11.41,88.5,0,110.2,13.37,11.07,112.0
"2009-05-22 01:11:00",907656,8.66,151,6.467,1.342,14.54,104.3001,10.28,11.5,88.6,0,110.2,13.37,11.07,113.0
"2009-05-22 01:11:30",907657,8.34,148.1,7.778,1.161,13.97,104.2992,10.28,11.46,88.6,0,110.2,13.37,11.07,110.1
"2009-05-22 01:12:00",907658,7.479,142.5,4.056,1.351,13.33,104.3001,10.28,11.39,88.5,0,110.3,13.37,11.07,104.5
"2009-05-22 01:12:30",907659,7.881,137.6,6.362,1.259,12.76,104.3007,10.28,11.41,88.6,0,110.2,13.37,11.07,99.6
"2009-05-22 01:13:00",907660,6.64,132.5,2.152,0.162,10.55,104.2996,10.28,11.28,88.5,0,110.2,13.41,11.07,94.5
"2009-05-22 01:13:30",907661,7.507,144.5,10.49,1.292,12.92,104.2962,10.27,11.39,88.6,0,110.2,13.37,11.06,106.5
"2009-05-22 01:14:00",907662,8.06,147.7,6.633,1.174,14.35,104.2925,10.26,11.46,88.7,0,110.2,13.37,11.05,109.7
"2009-05-22 01:14:30",907663,8.7,149.1,5.951,1.176,14.71,104.29,10.26,11.46,88.8,0,110.2,13.37,11.04,111.1
"2009-05-22 01:15:00",907664,7.262,146.3,5.074,1.242,13.15,104.2874,10.25,11.45,88.7,0,110.2,13.37,11.04,108.3
"2009-05-22 01:15:30",907665,7.648,140.1,5.075,1.176,11.39,104.2838,10.24,11.22,88.5,0,110.2,13.37,11.03,102.1
"2009-05-22 01:16:00",907666,7.671,152.3,8.48,1.278,13.21,104.2826,10.24,11.39,88.7,0,110.2,13.38,11.02,114.3
"2009-05-22 01:16:30",907667,6.943,146.4,4.661,1.037,11.67,104.2804,10.23,11.27,88.6,0,110.2,13.37,11.02,108.4
"2009-05-22 01:17:00",907668,7.506,151.6,7.057,1.289,13.28,104.2795,10.23,11.37,88.7,0,110.2,13.38,11.02,113.6
"2009-05-22 01:17:30",907669,8.08,154.9,6.154,1.237,14.09,104.2776,10.22,11.44,88.8,0,110.2,13.38,11.01,116.9
"2009-05-22 01:18:00",907670,7.115,148.3,4.917,1.148,12.37,104.2759,10.22,11.37,88.8,0,110.2,13.38,11.01,110.3
"2009-05-22 01:18:30",907671,7.241,152.3,7.268,1.34,12.58,104.2736,10.21,11.35,88.7,0,110.2,13.38,11.00,114.3
"2009-05-22 01:19:00",907672,6.502,148.5,1.109,0.207,10.84,104.2733,10.21,11.3,88.7,0,110.2,13.41,11.00,110.5
"2009-05-22 01:19:30",907673,7.714,154.2,6.61,1.351,13.24,104.2747,10.22,11.31,88.7,0,110.2,13.38,11.00,116.2
"2009-05-22 01:20:00",907674,7.651,156.1,6.715,1.31,13.29,104.2733,10.21,11.4,88.8,0,110.2,13.37,11.00,118.1
"2009-05-22 01:20:30",907675,8.23,159.6,4.947,1.108,14.72,104.2716,10.21,11.47,88.9,0,110.2,13.37,11.00,121.6
"2009-05-22 01:21:00",907676,7.78,157.2,6.812,1.32,13.28,104.2747,10.22,11.43,88.9,0,110.2,13.37,11.00,119.2
"2009-05-22 01:21:30",907677,7.677,159.5,5.54,1.266,12.69,104.2728,10.21,11.25,88.7,0,110.2,13.37,11.00,121.5
"2009-05-22 01:22:00",907678,6.632,152.1,2.007,0.181,10.5,104.2728,10.21,11.28,88.7,0,110.2,13.41,11.00,114.1
"2009-05-22 01:22:30",907679,7.639,157.9,4.467,1.297,12.6,104.2722,10.21,11.27,88.7,0,110.2,13.37,11.00,119.9
"2009-05-22 01:23:00",907680,7.005,151.4,5.042,0.91,11.76,104.2719,10.21,11.3,88.7,0,110.2,13.37,11.00,113.4
"2009-05-22 01:23:30",907681,8.75,162.9,6.279,1.154,14.75,104.2702,10.21,11.48,88.9,0,110.2,13.37,10.99,124.9
"2009-05-22 01:24:00",907682,8.1,161,6.29,1.182,13.96,104.2725,10.21,11.48,88.9,0,110.2,13.37,11.00,123.0
"2009-05-22 01:24:30",907683,8.81,166.7,5.577,0.996,14.39,104.2711,10.21,11.3,88.7,0,110.2,13.37,11.00,128.7
"2009-05-22 01:25:00",907684,7.136,152.5,2.938,0.48,10.73,104.2714,10.21,11.33,88.7,0,110.2,13.37,11.00,114.5
"2009-05-22 01:25:30",907685,6.938,157.1,3.867,1.008,11.09,104.2719,10.21,11.26,88.6,0,110.2,13.37,11.00,119.1
"2009-05-22 01:26:00",907686,6.45,155.4,3.68,0.229,10.72,104.2719,10.21,11.21,88.6,0,110.2,13.38,11.00,117.4
"2009-05-22 01:26:30",907687,7.722,162.7,6.782,1.209,13.38,104.2702,10.21,11.4,88.8,0,110.2,13.38,10.99,124.7
"2009-05-22 01:27:00",907688,8.82,166.8,7.051,1.256,14.96,104.2683,10.2,11.48,88.9,0,110.2,13.38,10.99,128.8
"2009-05-22 01:27:30",907689,7.699,162.1,7.226,1.177,12.93,104.2691,10.2,11.39,88.8,0,110.2,13.38,10.99,124.1
"2009-05-22 01:28:00",907690,8.79,164.6,5.564,1.259,13.93,104.2691,10.2,11.43,88.8,0,110.2,13.38,10.99,126.6
"2009-05-22 01:28:30",907691,6.803,157.3,2.854,0.172,10.81,104.2683,10.2,11.34,88.7,0,110.2,13.38,10.99,119.3
"2009-05-22 01:29:00",907692,6.949,152.9,3.862,0.23,10.4,104.2691,10.2,11.21,88.6,0,110.2,13.41,10.99,114.9
"2009-05-22 01:29:30",907693,6.629,153.7,2.364,0.248,10.76,104.2683,10.2,11.23,88.6,0,110.2,13.42,10.99,115.7
"2009-05-22 01:30:00",907694,8.7,160.7,6.545,1.24,15.02,104.2668,10.2,11.47,88.8,0,110.2,13.38,10.98,122.7
"2009-05-22 01:30:30",907695,9.28,169.4,4.282,0.833,15.86,104.2668,10.2,11.54,88.9,0,110.2,13.38,10.98,131.4
"2009-05-22 01:31:00",907696,7.635,160,7.104,1.256,13.21,104.2668,10.2,11.46,88.9,0,110.2,13.38,10.98,122.0
"2009-05-22 01:31:30",907697,8.41,164.3,6.726,1.272,13.42,104.2668,10.2,11.33,88.8,0,110.2,13.38,10.98,126.3
"2009-05-22 01:32:00",907698,6.633,156.7,1.277,0.128,10.44,104.2668,10.2,11.27,88.7,0,110.2,13.42,10.98,118.7
"2009-05-22 01:32:30",907699,6.638,155.6,1.75,0.107,10.47,104.2668,10.2,11.22,88.6,0,110.2,13.42,10.98,117.6
"2009-05-22 01:33:00",907700,7.883,162.6,6.92,1.314,12.88,104.2668,10.2,11.31,88.7,0,110.2,13.38,10.98,124.6
"2009-05-22 01:33:30",907701,8.56,168,5.475,1.22,15.01,104.2668,10.2,11.43,88.9,0,110.2,13.38,10.98,130.0
"2009-05-22 01:34:00",907702,8.26,165.4,5.589,1.186,15.02,104.2668,10.2,11.49,88.9,0,110.2,13.38,10.98,127.4
"2009-05-22 01:34:30",907703,7.965,166,6.8,1.23,13.75,104.2668,10.2,11.34,88.8,0,110.2,13.38,10.98,128.0
"2009-05-22 01:35:00",907704,7.773,165.8,7.084,1.37,12.69,104.2668,10.2,11.32,88.8,0,110.2,13.38,10.98,127.8
"2009-05-22 01:35:30",907705,6.419,159.7,3.252,0.166,10.95,104.2668,10.2,11.32,88.8,0,110.2,13.42,10.98,121.7
"2009-05-22 01:36:00",907706,6.279,160,1.413,0.177,10.51,104.2668,10.2,11.2,88.7,0,110.2,13.42,10.98,122.0
"2009-05-22 01:36:30",907707,7.505,167.6,7.449,1.255,13.04,104.2668,10.2,11.36,88.8,0,110.2,13.38,10.98,129.6
"2009-05-22 01:37:00",907708,8.15,167.8,6.632,1.28,14.17,104.2668,10.2,11.42,88.9,0,110.2,13.38,10.98,129.8
"2009-05-22 01:37:30",907709,8.52,171.3,5.915,1.169,15.02,104.2668,10.2,11.43,88.9,0,110.2,13.38,10.98,133.3
"2009-05-22 01:38:00",907710,7.6,166.6,6.57,1.28,13.27,104.2668,10.2,11.4,88.9,0,110.2,13.37,10.98,128.6
"2009-05-22 01:38:30",907711,7.596,168,7.303,1.212,13,104.2668,10.2,11.34,88.9,0,110.2,13.37,10.98,130.0
"2009-05-22 01:39:00",907712,6.145,158.7,1.045,0.179,10.36,104.2668,10.2,11.25,88.8,0,110.2,13.41,10.98,120.7
"2009-05-22 01:39:30",907713,6.654,160.2,3.914,0.754,10.81,104.2668,10.2,11.2,88.8,0,110.2,13.37,10.98,122.2
"2009-05-22 01:40:00",907714,7.768,164.2,6.825,1.293,12.9,104.2668,10.2,11.36,89,0,110.2,13.37,10.98,126.2
"2009-05-22 01:40:30",907715,7.548,167.4,6.918,1.138,12.44,104.2668,10.2,11.37,89,0,110.2,13.38,10.98,129.4
"2009-05-22 01:41:00",907716,8.61,173.6,6.405,1.133,14.98,104.2668,10.2,11.43,89.1,0,110.2,13.38,10.98,135.6
"2009-05-22 01:41:30",907717,7.863,168.8,6.654,1.287,13.57,104.2668,10.2,11.41,89.1,0,110.2,13.38,10.98,130.8
"2009-05-22 01:42:00",907718,8.1,168.8,6.01,1.424,12.91,104.2668,10.2,11.28,89,0,110.2,13.38,10.98,130.8
"2009-05-22 01:42:30",907719,7.153,166.8,5.699,1.033,11.57,104.2668,10.2,11.35,89.1,0,110.2,13.38,10.98,128.8
"2009-05-22 01:43:00",907720,7.438,166.9,5.416,1.158,11.63,104.2657,10.19,11.25,89,0,110.2,13.39,10.98,128.9
"2009-05-22 01:43:30",907721,7.76,169,6.881,1.264,12.71,104.2609,10.18,11.26,89,0,110.2,13.39,10.97,131.0
"2009-05-22 01:44:00",907722,8.48,172.1,6.272,1.199,13.82,104.2587,10.18,11.35,89.1,0,110.2,13.39,10.96,134.1
"2009-05-22 01:44:30",907723,8.24,169.5,7.351,1.297,13.84,104.2584,10.17,11.44,89.2,0,110.2,13.39,10.96,131.5
"2009-05-22 01:45:00",907724,8.74,170.8,6.754,1.177,14.28,104.2567,10.17,11.46,89.2,0,110.2,13.39,10.96,132.8
"2009-05-22 01:45:30",907725,7.591,168,5.87,1.198,12.61,104.255,10.17,11.41,89.2,0,110.2,13.39,10.95,130.0
"2009-05-22 01:46:00",907726,8.61,170.7,6.308,1.287,13.34,104.2522,10.16,11.33,89.1,0,110.2,13.39,10.95,132.7
"2009-05-22 01:46:30",907727,7.176,164.9,5.503,0.973,11.66,104.2494,10.15,11.32,89.1,0,110.2,13.39,10.94,126.9
"2009-05-22 01:47:00",907728,8.45,172.5,6.635,1.288,13.53,104.2488,10.15,11.25,89.1,0,110.2,13.39,10.94,134.5
"2009-05-22 01:47:30",907729,7.296,166.5,4.573,1.045,11.84,104.246,10.14,11.29,89.2,0,110.1,13.39,10.93,128.5
"2009-05-22 01:48:00",907730,7.987,169,6.705,1.35,13.19,104.2409,10.13,11.3,89.2,0,110.2,13.39,10.92,131.0
"2009-05-22 01:48:30",907731,8.27,171.3,7.381,1.28,13.84,104.2381,10.12,11.36,89.3,0,110.2,13.39,10.91,133.3
"2009-05-22 01:49:00",907732,7.944,171.2,7.585,1.305,14.11,104.2344,10.11,11.47,89.5,0,110.2,13.39,10.90,133.2
"2009-05-22 01:49:30",907733,6.932,164.8,4.324,1.162,11.27,104.2335,10.11,11.26,89.3,0,110.2,13.39,10.90,126.8